This demonstration page uses our WeatherBlox Daily Observations layout. Learn more.

Left ArrowRight Arrow

39.08367, -84.50855

Hourly Observations for March 18, 2015

Temp ( °F °C ) Dew Point ( °F °C ) Humidity (%) Winds ( mph kmh ) Pressure ( in mb ) Visibility ( mi km ) Precip ( " mm )
12:53 am 00:53 Clear 34 1.1 13 -10.6 42 42 N 12 19 30.33 1027 10 16.0934 N/A
1:53 am 01:53 Clear 34 1.1 13 -10.6 42 42 N 10 17 30.33 1027 10 16.0934 N/A
2:53 am 02:53 Clear 33 0.6 14 -10 45 45 N 10 17 30.34 1028 10 16.0934 N/A
3:53 am 03:53 Clear 33 0.6 14 -10 45 45 NNE 10 17 30.33 1027 10 16.0934 N/A
4:53 am 04:53 Clear 31 -0.6 14 -10 49 49 NNE 8 13 30.33 1027 10 16.0934 N/A
5:53 am 05:53 Clear 30 -1.1 14 -10 51 51 N 5 7 30.34 1027 10 16.0934 N/A
6:53 am 06:53 Clear 30 -1.1 14 -10 51 51 NE 3 6 30.35 1028 10 16.0934 N/A
7:53 am 07:53 Sunny 30 -1.1 16 -8.9 56 56 N N/A 30.37 1028 10 16.0934 N/A
8:53 am 08:53 Sunny 33 0.6 15 -9.4 47 47 N N/A 30.4 1029 10 16.0934 N/A
9:53 am 09:53 Sunny 35 1.7 16 -8.9 46 46 NNE 7 11 30.4 1030 10 16.0934 N/A
10:53 am 10:53 Sunny 39 3.9 13 -10.6 34 34 NE 12 19 30.39 1029 10 16.0934 N/A
11:53 am 11:53 Sunny 41 5 12 -11.1 30 30 NE 12 19 30.37 1029 10 16.0934 N/A
12:53 pm 12:53 Sunny 42 5.6 12 -11.1 29 29 ENE 6 9 30.36 1028 10 16.0934 N/A
1:53 pm 13:53 Sunny 44 6.7 14 -10 30 30 ENE 8 13 30.33 1027 10 16.0934 N/A
2:53 pm 14:53 Sunny 47 8.3 15 -9.4 28 28 N 8 13 30.29 1026 10 16.0934 N/A
3:53 pm 15:53 Sunny 46 7.8 14 -10 27 27 N 6 9 30.27 1025 10 16.0934 N/A
4:53 pm 16:53 Sunny 47 8.3 14 -10 26 26 NNE 3 6 30.26 1025 10 16.0934 N/A
5:53 pm 17:53 Sunny 47 8.3 17 -8.3 30 30 NE 7 11 30.25 1025 10 16.0934 N/A
6:54 pm 18:54 Sunny 45 7.2 15 -9.4 30 30 NE 7 11 30.27 1025 10 16.0934 N/A
7:53 pm 19:53 Clear 45 7.2 19 -7.2 35 35 E 5 7 30.27 1025 10 16.0934 N/A
8:53 pm 20:53 Clear 44 6.7 18 -7.8 35 35 N N/A 30.27 1025 10 16.0934 N/A
9:53 pm 21:53 Clear 43 6.1 24 -4.4 47 47 N N/A 30.27 1025 10 16.0934 N/A
10:53 pm 22:53 Mostly Clear 42 5.6 26 -3.3 53 53 NE 3 6 30.27 1025 10 16.0934 N/A
11:53 pm 23:53 Clear 41 5 24 -4.4 51 51 ENE 3 6 30.25 1024 10 16.0934 N/A

Powered by AerisWeather